Flag for Germany Weather past 2 weeks in Forchheim, Bavaria, Germany

Now
66 °F

Overcast.


Feels Like: 66 °F
Forecast: 45 / 74 °F
Wind: 3 mph from North

Location: Bamberg


UV Index: 3 (Moderate)

Visibility: 31 mi


Pressure: 30.09 "Hg

Humidity: 44%

Dew point: 44 °F

Location of ForchheimLocation

Historic Weather in Forchheim

°F

Forchheim temperature yesterday

Maximum temperature yesterday: 65 °F (at 5:00 PM)
Minimum temperature yesterday: 42 °F (at 6:00 AM)
Average temperature yesterday: 53 °F

Past Weeks' High & Low Weather Summary

 TemperatureHumidityPressure
High66 °F (Apr 23, 1:00 PM)100% (Apr 16, 7:00 AM)30.44 "Hg (Apr 16, 7:00 AM)
Low25 °F (Apr 17, 6:00 AM)29% (Apr 17, 3:00 PM)29.62 "Hg (Apr 21, 5:00 PM)
Average49 °F74%30.04 "Hg
* Reported Apr 8 1:00 PM — Apr 23 1:00 PM, Forchheim, Weather by CustomWeather, © 2014

Note: Actual official high and low records may vary slightly from our data, if they occured in-between our weather recording intervals... More about our weather records

Advertising

Historic Weather Conditions — Data for Previous 24 hours

 ConditionsComfort  
Time TempWeatherWind HumidityBarometerVisibility
1:00 PM
Apr 23
66 °FOvercast.3 mph44%30.09 "Hg31 mi
12:00 PM65 °FPartly sunny.2 mph51%30.10 "Hg28 mi
11:00 AM62 °FPassing clouds.1 mph59%30.12 "Hg19 mi
10:00 AM56 °FSunny.1 mph71%30.13 "Hg16 mi
9:00 AM50 °FPassing clouds.1 mph85%30.13 "Hg11 mi
8:00 AM44 °FScattered clouds.1 mph96%30.14 "Hg9 mi
7:00 AM36 °FPartly sunny.1 mph100%30.15 "Hg6 mi
6:00 AM35 °FFog.1 mph100%30.13 "Hg4 mi
5:00 AM36 °FOvercast.1 mph100%30.12 "Hg11 mi
4:00 AM37 °FClear.1 mph100%30.11 "Hg6 mi
3:00 AM38 °FFog.1 mph99%30.09 "Hg4 mi
2:00 AM40 °FClear.1 mph99%30.08 "Hg7 mi
1:00 AM41 °FClear.1 mph98%30.07 "Hg7 mi
12:00 AM42 °FPassing clouds.1 mph99%30.05 "Hg7 mi
11:00 PM
Apr 22
45 °FOvercast.1 mph97%30.03 "Hg14 mi
10:00 PM47 °FClear.1 mph96%30.01 "Hg19 mi
9:00 PM51 °FOvercast.1 mph89%29.98 "Hg34 mi
8:00 PM60 °FPartly sunny.2 mph61%29.94 "Hg43 mi
7:00 PM64 °FScattered clouds.1 mph49%29.92 "Hg43 mi
6:00 PM65 °FPassing clouds.2 mph49%29.90 "Hg43 mi
5:00 PM65 °FPartly sunny.2 mph48%29.90 "Hg43 mi
4:00 PM63 °FOvercast.2 mph54%29.90 "Hg43 mi
3:00 PM64 °FPartly sunny.1 mph54%29.90 "Hg40 mi
2:00 PM60 °FOvercast.3 mph63%29.90 "Hg37 mi
Weather by CustomWeather, © 2014

See weather overview